Regional Weather Roundup
Issued by NWS Little Rock, AR

Home | Current Version | Previous Version | Text Only | Print | Product List | Glossary On
Versions: 1 2 3 4 5 6 7 8 9 10 11 12 13 14 15 16 17 18 19 20 21 22 23 24 25 26 27 28 29 30 31 32 33 34 35 36 37 38 39 40 41 42 43 44 45 46 47 48 49 50
000
ASUS44 KLZK 260505
RWRLZK

WEATHER ROUNDUP FOR ARKANSAS
NATIONAL WEATHER SERVICE LITTLE ROCK AR
1200 AM CDT SUN APR 26 2015

NOTE: "FAIR" INDICATES FEW OR NO CLOUDS BELOW 12,000 FEET WITH NO
SIGNIFICANT WEATHER AND/OR OBSTRUCTIONS TO VISIBILITY.

ARZ001-003-010-029-260600-
NORTHWEST ARKANSAS

CITY           SKY/WX    TMP DP  RH WIND       PRES   REMARKS
FAYETTEVILLE   CLEAR     61  54  77 N6        29.73R
FORT SMITH     FAIR      68  53  58 N6        29.67R
HARRISON       CLEAR     59  53  80 NW6       29.73R
BENTONVILLE    CLEAR    N/A N/A N/A NE7       29.74R
ROGERS         CLEAR     58  54  86 N7        29.75R
SILOAM SPGS    CLEAR     59  48  67 NE6       29.75R
HIGHFILL       CLEAR     58  53  84 N9        29.73R
$$

ARZ004-005-016-260600-
NORTH CENTRAL ARKANSAS

CITY           SKY/WX    TMP DP  RH WIND       PRES   REMARKS
BATESVILLE     CLEAR     64  54  68 NW3       29.66R
FLIPPIN        CLEAR     64  54  68 NW5       29.69R
MTN HOME       CLEAR     62  53  72 NW6       29.69R
$$

ARZ040-041-260600-
WEST CENTRAL ARKANSAS

CITY           SKY/WX    TMP DP  RH WIND       PRES   REMARKS
MENA           CLEAR     64  54  68 CALM      29.70S
MOUNT IDA      CLEAR     61  52  72 CALM      29.66S
$$

ARZ009-017-025-026-028-260600-
NORTHEAST ARKANSAS

CITY           SKY/WX    TMP DP  RH WIND       PRES   REMARKS
CORNING          N/A     68  55  64 N7        29.65R
JONESBORO      CLEAR     68  54  60 NW7       29.62R
NEWPORT        CLEAR     66  56  70 NW12      29.65R
WALNUT RIDGE   CLEAR     64  52  63 W6        29.64R
BLYTHEVILLE    CLEAR     63  59  87 NE8       29.63R
$$

ARZ022-023-033-042-044-260600-
CENTRAL ARKANSAS

CITY           SKY/WX    TMP DP  RH WIND       PRES   REMARKS
LITTLE ROCK    CLEAR     66  53  63 SW6       29.65R
N LITTLE ROCK  CLEAR     72  55  55 W6        29.65R
JACKSONVILLE   CLEAR     59  57  92 CALM      29.64
SEARCY         PTCLDY    60  55  83 N7        29.66R
HOT SPRINGS    CLEAR     62  53  72 CALM      29.68R
RUSSELLVILLE   CLEAR     59  56  89 CALM      29.66R
CLINTON        FAIR      59  57  94 CALM      29.69R
$$

ARZ036-260600-
EAST ARKANSAS

CITY           SKY/WX    TMP DP  RH WIND       PRES   REMARKS
WEST MEMPHIS   CLEAR     70  59  68 W6        29.60R
$$

ARZ050-053-066-070-073-260600-
SOUTHWEST ARKANSAS

CITY           SKY/WX    TMP DP  RH WIND       PRES   REMARKS
ARKADELPHIA    FAIR      63  63 100 CALM      29.68R
CAMDEN         CLEAR     59  57  94 CALM      29.67R
TEXARKANA      CLEAR     67  56  67 SW5       29.68S
EL DORADO      CLEAR     60  56  86 CALM      29.68S
DE QUEEN       CLEAR     56  55  97 CALM      29.66S FOG
$$

ARZ056-057-069-260600-
SOUTHEAST ARKANSAS

CITY           SKY/WX    TMP DP  RH WIND       PRES   REMARKS
PINE BLUFF     CLEAR     67  54  63 SW5       29.66R
STUTTGART      CLEAR     66  55  68 W8        29.65R
MONTICELLO     CLEAR     70  54  56 SW7       29.66R

$$




USA.gov is the U.S. government's official web portal to all federal, state and local government web resources and services.